[TLELIST] Archives

 

Current TLEs

August 15th 2007 PDT

HST 1 20580U 90037B 07227.14819393 .00000291 00000-0 96821-5 0 9386 2 20580 028.4676 165.6394 0003355 003.8797 356.1820 15.00268622748820 ISS (ZARYA) 1 25544U 98067A 07227.41641324 -.00026659 00000-0 -16338-3 0 7850 2 25544 051.6319 158.0743 0008380 244.4126 220.3240 15.76068289500120 CXO 1 25867U 99040B 07225.79166667 .00000120 00000-0 00000+0 0 997 2 25867 062.1781 088.0161 6312897 283.1495 352.7776 00.37803636 2473 ____________________________________________________________________ These 2-Line ...Continue Reading

Current TLEs

August 14th 2007 PDT

HST 1 20580U 90037B 07225.88423711 .00000308 00000-0 11053-4 0 9371 2 20580 028.4677 173.8821 0003336 349.6197 010.4328 15.00268422748631 ISS (ZARYA) 1 25544U 98067A 07226.40106601 .00010782 00000-0 70990-4 0 7787 2 25544 051.6337 163.3001 0008277 241.4349 218.1650 15.76275229499968 CXO 1 25867U 99040B 07225.79166667 .00000120 00000-0 00000+0 0 997 2 25867 062.1781 088.0161 6312897 283.1495 352.7776 00.37803636 2473 ____________________________________________________________________ These 2-Line ...Continue Reading

Current TLEs

August 13th 2007 PDT

HST 1 20580U 90037B 07223.95503975 +.00000340 +00000-0 +13496-4 0 09388 2 20580 028.4676 186.4629 0003376 328.6598 031.3799 15.00268044748344 ISS (ZARYA) 1 25544U 98067A 07225.33007067 .00011451 00000-0 75209-4 0 7719 2 25544 051.6337 168.8199 0008209 237.3936 260.6890 15.76253143499797 CXO 1 25867U 99040B 07225.79166667 .00000120 00000-0 00000+0 0 997 2 25867 062.1781 088.0161 6312897 283.1495 352.7776 00.37803636 2473 ____________________________________________________________________ These 2-Line ...Continue Reading

Current TLEs

August 12th 2007 PDT

HST 1 20580U 90037B 07222.95717883 +.00000322 +00000-0 +12089-4 0 09491 2 20580 028.4676 192.9692 0003431 317.2596 042.7729 15.00267566748190 ISS (ZARYA) 1 25544U 98067A 07224.43569564 .00010953 00000-0 72194-4 0 7653 2 25544 051.6329 173.4269 0008194 233.6032 225.9396 15.76229810499651 CXO 1 25867U 99040B 07223.12500000 .00000072 00000-0 00000+0 0 980 2 25867 062.1726 088.0783 6307618 283.2127 349.6952 00.37799251 2467 ____________________________________________________________________ These 2-Line ...Continue Reading

Current TLEs

August 11th 2007 PDT

HST 1 20580U 90037B 07223.22327518 .00000328 00000-0 12590-4 0 9352 2 20580 028.4676 191.2332 0003403 321.2281 038.8068 15.00267693748236 ISS (ZARYA) 1 25544U 98067A 07223.48567328 .00011123 00000-0 73312-4 0 7599 2 25544 051.6335 178.3234 0008267 230.2568 234.8436 15.76207887499500 CXO 1 25867U 99040B 07223.12500000 .00000072 00000-0 00000+0 0 980 2 25867 062.1726 088.0783 6307618 283.2127 349.6952 00.37799251 2467 ____________________________________________________________________ These 2-Line ...Continue Reading

Current TLEs

August 10th 2007 PDT

HST 1 20580U 90037B 07220.29621612 +.00000275 +00000-0 +84220-5 0 09348 2 20580 028.4679 210.3201 0003551 287.0360 072.9842 15.00266549747796 ISS (ZARYA) 1 25544U 98067A 07222.47036076 .00011091 00000-0 73194-4 0 7534 2 25544 051.6326 183.5527 0008270 224.7137 235.3015 15.76184188499346 CXO 1 25867U 99040B 07223.12500000 .00000072 00000-0 00000+0 0 980 2 25867 062.1726 088.0783 6307618 283.2127 349.6952 00.37799251 2467 ____________________________________________________________________ These 2-Line ...Continue Reading

Current TLEs

August 9th 2007 PDT

HST 1 20580U 90037B 07219.36487893 +.00000296 +00000-0 +10066-4 0 09355 2 20580 028.4679 216.3930 0003569 276.8722 083.1458 15.00266487747651 ISS (ZARYA) 1 25544U 98067A 07221.01405140 .00009054 00000-0 60627-4 0 7448 2 25544 051.6318 191.0552 0008265 218.9258 252.0991 15.76143499499116 CXO 1 25867U 99040B 07220.50000000 .00000080 00000-0 00000+0 0 972 2 25867 062.1609 088.1285 6304575 283.2930 352.2645 00.37798921 2457 ____________________________________________________________________ These 2-Line ...Continue Reading

Current TLEs

August 8th 2007 PDT

HST 1 20580U 90037B 07220.22969212 .00000271 00000-0 81660-5 0 9332 2 20580 028.4679 210.7542 0003565 286.2831 073.7369 15.00266508747784 ISS (ZARYA) 1 25544U 98067A 07220.50490938 .00008397 00000-0 56567-4 0 7403 2 25544 051.6317 193.6784 0008174 216.4753 243.6614 15.76130162499034 CXO 1 25867U 99040B 07220.50000000 .00000080 00000-0 00000+0 0 972 2 25867 062.1609 088.1285 6304575 283.2930 352.2645 00.37798921 2457 ____________________________________________________________________ These 2-Line ...Continue Reading

Current TLEs

August 7th 2007 PDT

HST 1 20580U 90037B 07219.16530683 .00000289 00000-0 95418-5 0 9323 2 20580 028.4679 217.6945 0003591 274.6744 085.3434 15.00266387747620 ISS (ZARYA) 1 25544U 98067A 07219.48945721 .00006818 00000-0 46767-4 0 7321 2 25544 051.6319 198.9106 0008362 212.7412 241.7724 15.76105557498874 CXO 1 25867U 99040B 07217.87500000 .00000184 00000-0 00000+0 0 967 2 25867 062.1405 088.2061 6304188 283.3315 354.8934 00.37805414 2446 ____________________________________________________________________ These 2-Line ...Continue Reading

Current TLEs

August 6th 2007 PDT

HST 1 20580U 90037B 07217.43568125 .00000312 00000-0 11326-4 0 9314 2 20580 028.4680 228.9722 0003655 256.0482 103.9702 15.00266091747362 ISS (ZARYA) 1 25544U 98067A 07218.48312594 .00006798 00000-0 46669-4 0 7267 2 25544 051.6310 204.0953 0008400 209.0355 291.7398 15.76090196498719 CXO 1 25867U 99040B 07217.87500000 .00000184 00000-0 00000+0 0 967 2 25867 062.1405 088.2061 6304188 283.3315 354.8934 00.37805414 2446 ____________________________________________________________________ These 2-Line ...Continue Reading
  • This mailing list is a public mailing list - anyone may join or leave, at any time.
  • This mailing list is announce-only.

International Space Station (ISS) / Hubble Space Telescope (HST) / Chandra X-Ray Observatory Orbital Data via EMAIL

Privacy Policy:

Private list